Regional Weather Roundup
Issued by NWS State College, PA

Current Version |  Previous Version |  Text Only |  Print | Product List |  Glossary On
Versions: 1 2 3 4 5 6 7 8 9 10 11 12 13 14 15 16 17 18 19 20 21 22 23 24 25 26 27 28 29 30 31 32 33 34 35 36 37 38 39 40 41 42 43 44 45 46 47 48 49 50
246
ASUS41 KCTP 200303
RWRCTP

REGIONAL WEATHER ROUNDUP
NATIONAL WEATHER SERVICE STATE COLLEGE PA
1100 PM EDT SUN MAY 19 2024

Note: "fair" indicates few or no clouds below 12,000 feet with no
significant weather and/or obstructions to visibility.

* = STATION THAT DOES NOT REPORT PRECIPITATION /E.G. RAIN...SNOW...ETC/
    THUNDER OR FOG.

PAZ002>004-007>009-013>016-020>023-029>032-200400-
WESTERN PENNSYLVANIA

CITY           SKY/WX    TMP DP  RH WIND       PRES   REMARKS
ERIE           MOCLDY    68  55  63 CALM      29.97F
MEADVILLE      PTCLDY    65  55  70 CALM      30.01S
FRANKLIN       PTCLDY    62  53  72 SE6       30.03S
NEW CASTLE     CLEAR     62  56  80 CALM      30.00S
BEAVER COUNTY  CLEAR     72  52  49 CALM      30.01S
BUTLER         CLEAR     65  57  75 NE3       30.01S
PITTSBURGH INT PTCLDY    68  54  60 CALM      29.99S
PITTSBURGH     CLEAR     73  51  46 CALM      29.99S
INDIANA*       PTCLDY    63  61  94 CALM      30.06R
LATROBE        CLEAR     64  59  82 CALM      30.01S
CONNELLSVILLE  NOT AVBL
WASHINGTON CO* CLEAR     61  57  87 CALM      30.03S
$$

PAZ004>006-010>012-017>019-024>028-033>037-041-042-045-046-049>053-200400-
CENTRAL PENNSYLVANIA

CITY           SKY/WX    TMP DP  RH WIND       PRES   REMARKS
BRADFORD       FOG       59  58  96 CALM      30.04F VSB 3/4
ST MARYS       CLOUDY    61  57  88 CALM      30.08S
DUBOIS         CLEAR     63  56  78 E3        30.03R
CLEARFIELD     CLEAR     59  59 100 N6        30.04R
JOHNSTOWN      CLEAR     61  57  87 S3        30.06R
SOMERSET       CLEAR     57  55  94 CALM      30.07S
ALTOONA        CLEAR     62  58  86 CALM      30.05R
STATE COLLEGE  CLEAR     63  59  88 CALM      30.03R
REEDSVILLE     CLEAR     61  59  94 CALM      30.01S
WELLSBORO      CLEAR     59  55  88 CALM      30.04R
WILLIAMSPORT   CLEAR     65  61  87 N5        29.98S
SELINSGROVE    MOCLDY    61  59  93 CALM      30.00R
FT INDIANTOWN  NOT AVBL
CAPITAL CITY   CLEAR     66  59  78 W3        30.00R
HARRISBURG     PTCLDY    66  63  90 E3        29.99R
YORK           MOCLDY    64  60  87 CALM      30.00R
$$

PAZ038>040-043-044-047-048-054-055-060>062-067>071-200400-
EASTERN PENNSYLVANIA

CITY           SKY/WX    TMP DP  RH WIND       PRES   REMARKS
TOWANDA          N/A     61  61 100 CALM      30.03S
SCRANTON       PTCLDY    65  57  75 E3        30.01R
MOUNT POCONO   CLOUDY    61  55  81 SE6       30.05R
HAZLETON         N/A     59  57  94 CALM      30.07R
LEHIGHTON      PTCLDY    57  55  94 CALM      30.02R
ALLENTOWN      MOCLDY    67  56  67 SE10      30.01R
QN CITY/ALNTWN PTCLDY    66  59  77 SE13      30.02R
QUAKERTOWN*    PTCLDY    64  61  88 SE6       30.04R
PERKASIE*      CLEAR     63  61  94 CALM      30.05R
DOYLESTOWN     PTCLDY    63  57  81 CALM        N/A
READING        CLOUDY    67  60  78 CALM      29.99R
LANCASTER      CLEAR     63  60  90 CALM      30.00R
COATESVILLE    MOCLDY    61  61 100 VRB7      30.04R
WEST CHESTER   PTCLDY    63  59  88 SE5       30.04R
POTTSTOWN      PTCLDY    66  59  78 S8        30.04R
BLUE BELL      MOCLDY    64  58  81 S5        30.03F
NORTH PHILA    PTCLDY    63  56  78 SE5       30.05R
PHILADELPHIA   PTCLDY    62  57  83 SE7       30.04R
$$